Location: Gebenbach
(49.5378°N, 11.8735°E)
Time: 14:40:32
(UTC+00:00)

ADEOS Rocket - Pass Details

Date: 29 October 2020
Orbit: 859 x 1306 km, 98.7° (Epoch: 28 November)

Event Time Altitude Azimuth Distance (km) Brightness Sun altitude
Rises 16:41:46 0° 13° (NNE) 3,726 5.8 -8.1°
Reaches altitude 10° 16:44:09 10° 11° (N) 2,829 5.2 -8.5°
Maximum altitude 16:50:33 71° 289° (WNW) 1,172 3.6 -9.5°
Drops below altitude 10° 16:57:37 10° 208° (SSW) 3,123 6.2 -10.7°
Sets 17:00:22 0° 206° (SSW) 4,137 6.8 -11.1°
